N8DNY-13 Weather Reports


time (UTC)temp
F
wind
direction
speed
knots
gust
knots
rain 1hr
in
rain 24hr
in
rain mn
in
humidity
%
barometer
mb
20260503215423 65 286 1.7 3.5 0.00 0.00 0.00 39 1015.1
20260503213920 62 282 0.9 1.7 0.00 0.00 0.00 42 1015.1
20260503212410 63 243 1.7 2.6 0.00 0.00 0.00 41 1015.3
20260503210904 64 249 0.9 1.7 0.00 0.00 0.00 39 1015.2
20260503205400 67 223 1.7 3.5 0.00 0.00 0.00 35 1015.2
20260503203850 66 243 1.7 2.6 0.00 0.00 0.00 36 1015.4
20260503202346 66 241 6.1 7.0 0.00 0.00 0.00 34 1015.4
20260503200905 67 277 0.0 0.9 0.00 0.00 0.00 36 1015.8
20260503195344 66 235 1.7 3.5 0.00 0.00 0.00 34 1015.8
20260503193843 66 267 3.5 4.3 0.00 0.00 0.00 34 1016.0
20260503192341 67 235 6.1 11.3 0.00 0.00 0.00 34 1016.2
20260503190840 66 256 2.6 4.3 0.00 0.00 0.00 35 1016.3
20260503185358 66 242 1.7 2.6 0.00 0.00 0.00 35 1016.6
20260503183838 67 250 4.3 8.7 0.00 0.00 0.00 35 1016.9
20260503182335 67 290 1.7 2.6 0.00 0.00 0.00 35 1017.0
20260503180835 66 221 0.9 1.7 0.00 0.00 0.00 35 1017.1
20260503175333 66 213 4.3 5.2 0.00 0.00 0.00 33 1017.5
20260503173830 67 275 2.6 5.2 0.00 0.00 0.00 32 1017.4
20260503172350 64 243 4.3 7.0 0.00 0.00 0.00 35 1017.9
20260503170830 64 193 3.5 7.8 0.00 0.00 0.00 37 1017.8
20260503131247 51 242 1.7 3.5 0.00 0.00 0.00 52 1019.7
20260503081126 36 270 0.0 0.0 0.00 0.00 0.00 74 1020.0
20260503072548 36 272 0.0 0.0 0.00 0.00 0.00 76 1020.1
20260503071047 36 272 0.0 0.0 0.00 0.00 0.00 76 1020.0
20260503054046 37 273 0.0 0.0 0.00 0.00 0.00 78 1020.6
20260503052519 37 273 0.0 0.0 0.00 0.00 0.00 79 1020.6
20260503051017 37 273 0.0 0.0 0.00 0.00 0.00 78 1020.8
20260503045512 37 288 0.0 0.0 0.00 0.00 0.00 79 1020.8
20260503044007 38 288 0.0 0.0 0.00 0.00 0.00 75 1020.8
20260503042504 38 288 0.0 0.0 0.00 0.00 0.00 74 1020.6
20260503041002 39 289 0.0 0.0 0.00 0.00 0.00 72 1020.9
20260503035502 39 289 0.0 0.0 0.00 0.00 0.00 71 1020.9
20260503033957 38 289 0.0 0.0 0.00 0.00 0.00 73 1020.9
20260503032507 39 289 0.0 0.0 0.00 0.00 0.00 71 1021.0
20260503031006 40 289 0.0 0.0 0.00 0.00 0.00 69 1021.0
20260503025441 41 289 0.0 0.0 0.00 0.00 0.00 67 1021.0
20260503023937 42 289 0.0 0.0 0.00 0.00 0.00 63 1021.1
20260503022435 43 289 0.0 0.0 0.00 0.00 0.00 63 1021.2
20260503020928 43 289 0.0 0.0 0.00 0.00 0.00 62 1021.0
20260503015418 44 289 0.0 0.0 0.00 0.00 0.00 60 1020.9
20260503013907 44 289 0.0 0.0 0.00 0.00 0.00 58 1020.9
20260503012406 44 289 0.0 0.0 0.00 0.00 0.00 59 1020.7
20260503010921 45 289 0.0 0.0 0.00 0.00 0.00 54 1020.7
20260503005357 46 289 0.0 0.0 0.00 0.00 0.00 51 1020.8
20260503003854 46 289 0.0 0.0 0.00 0.00 0.00 49 1020.6
20260503002347 47 289 0.0 0.0 0.00 0.00 0.00 49 1020.7
20260503000837 47 289 0.0 0.0 0.00 0.00 0.00 46 1020.6
20260502235328 48 277 0.0 0.0 0.00 0.00 0.00 47 1020.5
20260502233827 48 284 0.0 0.0 0.00 0.00 0.00 47 1020.5
20260502232321 48 280 0.0 0.0 0.00 0.00 0.00 47 1020.7
20260502230818 49 283 0.0 0.0 0.00 0.00 0.00 44 1020.6
20260502225314 50 282 0.0 0.0 0.00 0.00 0.00 41 1020.5
20260502223807 50 284 0.0 0.0 0.00 0.00 0.00 45 1020.8
20260502222258 50 307 0.0 0.0 0.00 0.00 0.00 42 1020.8
20260502220749 50 284 0.0 0.9 0.00 0.00 0.00 44 1020.8